Regional Weather Roundup
Issued by NWS

Home | Current Version | Previous Version | Text Only | Print | Product List | Glossary Off
Versions: 1 2 3 4 5 6 7 8 9 10 11 12 13 14 15 16 17 18 19 20 21 22 23 24 25 26 27 28 29 30 31 32 33 34 35 36 37 38 39 40 41 42 43 44 45 46 47 48 49 50

543
ASUS45 KSLC 252110
RWRUT

UTAH REGIONAL WEATHER ROUNDUP
NATIONAL WEATHER SERVICE SALT LAKE CITY UT
300 PM MDT WED MAY 25 2016

UTZ001>011-023>025-252200-

NORTHERN UTAH

CITY           SKY/WX    TMP DP  RH WIND       PRES   REMARKS
BRIGHAM CITY     N/A     63  37  39 NE7       30.02F
DUGWAY         MOSUNNY   70  35  27 W7        30.00F
HILL AFB       MOSUNNY   61  40  46 VRB7      30.03S
LOGAN          PTSUNNY   61  42  49 N6        30.04R
OGDEN          MOSUNNY   65  40  39 SW9       30.01F
PROVO AIRPORT  PTSUNNY   66  36  32 NW12      30.00F
SALT LAKE CITY MOSUNNY   64  36  35 E7        30.00F
VERNAL         CLOUDY    66  28  24 SW14      30.01S
WENDOVER       MOSUNNY   66  36  32 E9        30.01F
HEBER CITY     PTSUNNY   66  30  26 SW14G20   30.00S
WEST JORDAN    SUNNY     61  39  44 E6        30.02F

$$

UTZ012>022-026-027-252200-

SOUTHERN/CENTRAL UTAH

CITY           SKY/WX    TMP DP  RH WIND       PRES   REMARKS
BLANDING       SUNNY     69  15  12 S3        30.14F
BRYCE CANYON   SUNNY     60   8  12 S16G23    30.10F
CEDAR CITY     MOSUNNY   70  16  12 SW22G28   29.99F
DELTA          MOSUNNY   68  30  24 S7G16     29.99F
HANKSVILLE     SUNNY     75  19  12 S18G24    29.98S
MILFORD        SUNNY     70  16  12 VRB6      29.98F
MOAB/CYNLANDS  SUNNY     75  16  10 SW9G24    29.96F
PRICE          CLOUDY    63  23  21 NW7       30.03F
ST GEORGE      MOCLDY    77  21  12 SW7       29.93F
KANAB          SUNNY     72  14  11 CALM      30.04F

$$

REGIONAL REPORTS     COLORADO/ARIZONA

CITY           SKY/WX    TMP DP  RH WIND       PRES   REMARKS
CRAIG, CO      MOSUNNY   67  25  20 W18G32    30.02F
GRAND JUNCTION SUNNY     72  21  14 NW12      29.98F
RIFLE          SUNNY     71  23  16 W15G29    30.00F
MONTROSE       CLOUDY    73   8   8 W22G28    30.03F
CORTEZ         SUNNY     71  14  11 S13G21    30.07F
PAGE, AZ       SUNNY     76  13   9 N6        29.96F
GRAND CANYON   MOSUNNY   66  16  14 SW22G29   30.09F
KINGMAN        SUNNY     77  24  14 SW28G33   29.96F
FLAGSTAFF      SUNNY     60  17  18 S20G29    30.12

$$

REGIONAL REPORTS    NEVADA/IDAHO/WYOMING

CITY           SKY/WX    TMP DP  RH WIND       PRES   REMARKS
LAS VEGAS, NV  MOSUNNY   81  28  14 N10G17    29.87F
ELY            PTSUNNY   56  34  43 SE15      30.07S
ELKO           LGT RAIN  52  43  71 NW13      30.06R
POCATELLO, ID  CLOUDY    65  40  39 W18G24    30.00F
BURLEY         MOSUNNY   61  41  47 W13       30.01S
EVANSTON, WY   TSTM      49  36  61 S7        30.08S
ROCK SPRINGS   CLOUDY    48  36  63 S10       30.08S
KEMMERER         N/A     50  32  50 W14G24    30.10R

$$




USA.gov is the U.S. government's official web portal to all federal, state and local government web resources and services.